Flag for Faroe Islands Weather past 2 weeks in Tórshavn, Faroe Islands, Faroe Islands

Now
52 °F

Partly sunny.


Feels Like: 51 °F
Forecast: 47 / 53 °F
Wind: 5 mph from Southeast

Location: Soervaag / Vagar

Current Time: Aug 2, 2015 at 9:33:03 AM

Latest Report: Aug 2, 2015 at 9:20 AM


Visibility: N/A

Pressure: 29.86 "Hg

Humidity: 94%

Dew point: 50 °F

Location of TórshavnLocation

Historic Weather in Tórshavn — Graph

°F

Tórshavn temperature yesterday

Maximum temperature yesterday: 54 °F (at 9:20 AM)
Minimum temperature yesterday: 46 °F (at 11:50 PM)
Average temperature yesterday: 50 °F

Past Weeks' High & Low Weather Summary

 TemperatureHumidityPressure
High55 °F (Jul 22, 4:50 PM)100% (Jul 19, 7:20 PM)30.01 "Hg (Jul 19, 7:20 PM)
Low39 °F (Jul 31, 2:50 AM)62% (Jul 30, 11:20 AM)29.47 "Hg (Jul 21, 5:50 AM)
Average49 °F83%29.77 "Hg
* Reported Jul 18 8:20 AM — Aug 2 8:20 AM, Tórshavn, Weather by CustomWeather, © 2015

Note: Actual official high and low records may vary slightly from our data, if they occured in-between our weather recording intervals... More about our weather records

Advertising

Tórshavn weather history for previous 24 hours

 ConditionsComfort  
Time TempWeatherWind HumidityBarometerVisibility
8:20 AM
Sun, Aug 2
50 °FLow clouds.1 mph94%29.83 "HgN/A
7:50 AM50 °FPartly sunny.1 mph94%29.83 "HgN/A
7:20 AM50 °FSprinkles. Partly sunny.3 mph94%29.80 "HgN/A
6:50 AM50 °FPartly sunny.2 mph94%29.80 "HgN/A
6:20 AM48 °FPartly sunny.1 mph100%29.80 "HgN/A
5:50 AM48 °FPartly cloudy.1 mph100%29.77 "HgN/A
5:20 AM48 °FMostly cloudy.No wind100%29.77 "HgN/A
4:50 AM48 °FPassing clouds.No wind94%29.77 "HgN/A
4:20 AM48 °FPassing clouds.3 mph100%29.77 "HgN/A
3:50 AM48 °FMostly cloudy.1 mph100%29.77 "HgN/A
3:20 AM48 °FSprinkles. Passing clouds.1 mph100%29.77 "HgN/A
2:50 AM48 °FSprinkles. Fog.3 mph100%29.77 "Hg3 mi
2:20 AM48 °FPassing clouds.1 mph100%29.74 "HgN/A
1:50 AM48 °FLight rain. Low clouds.2 mph94%29.74 "HgN/A
1:20 AM48 °FDrizzle. Low clouds.1 mph94%29.74 "HgN/A
12:50 AM46 °FDrizzle. Low clouds.3 mph100%29.74 "Hg3 mi
12:20 AM46 °FDrizzle. Low clouds.6 mph100%29.74 "HgN/A
11:50 PM
Sat, Aug 1
46 °FLight rain. Low clouds.7 mph93%29.74 "HgN/A
10:20 PM48 °FPartly sunny.3 mph87%29.74 "HgN/A
9:20 PM48 °FDrizzle. Partly sunny.5 mph82%29.71 "HgN/A
8:50 PM48 °FDrizzle. Overcast.3 mph87%29.71 "HgN/A
8:20 PM48 °FDrizzle. Overcast.5 mph87%29.71 "HgN/A
7:50 PM48 °FLight rain. Overcast.3 mph87%29.71 "HgN/A
7:20 PM48 °FLight rain. Overcast.8 mph87%29.71 "HgN/A
6:50 PM48 °FLight rain. Overcast.9 mph94%29.71 "HgN/A
6:20 PM50 °FDrizzle. Broken clouds.5 mph88%29.71 "HgN/A
5:50 PM50 °FDrizzle. Partly sunny.6 mph94%29.71 "HgN/A
5:20 PM50 °FLight rain. Partly sunny.5 mph88%29.71 "HgN/A
4:50 PM50 °FLight rain. Overcast.6 mph88%29.71 "HgN/A
4:20 PM50 °FLight rain. Overcast.5 mph94%29.71 "HgN/A
3:50 PM50 °FDrizzle. Overcast.6 mph94%29.71 "HgN/A
3:20 PM52 °FLight rain. Overcast.8 mph88%29.71 "HgN/A
2:50 PM52 °FLight rain. Overcast.8 mph82%29.71 "HgN/A
2:20 PM52 °FDrizzle. Partly sunny.7 mph82%29.68 "HgN/A
1:50 PM52 °FPartly sunny.6 mph82%29.68 "HgN/A
1:20 PM52 °FPartly sunny.7 mph82%29.68 "HgN/A
12:50 PM54 °FPassing clouds.5 mph72%29.68 "HgN/A
12:20 PM52 °FCool.7 mph77%29.68 "HgN/A
11:50 AM52 °FCool.7 mph82%29.68 "HgN/A
11:20 AM54 °FPassing clouds.5 mph77%29.68 "HgN/A
10:50 AM52 °FScattered clouds.3 mph77%29.68 "HgN/A
10:20 AM52 °FPassing clouds.1 mph72%29.68 "HgN/A
9:50 AM52 °FScattered clouds.3 mph82%29.68 "HgN/A
9:20 AM54 °FScattered clouds.1 mph82%29.68 "HgN/A
Weather by CustomWeather, © 2015

See weather overviewHow to use our weather pages